Location: Moscow
(38.8570°N, 84.2291°W)
Time: 16:42:29
(UTC+00:00)

Cosmos 407 Rocket - Pass Details

Date: 15 November 2025
Orbit: 740 x 780 km, 74.0° (Epoch: 06 December)

Event Time Altitude Azimuth Distance (km) Brightness Sun altitude
Rises 23:17:16 0° 195° (SSW) 3,214 7.2 -10.8°
Reaches altitude 10° 23:19:39 10° 195° (SSW) 2,286 6.4 -11.2°
Maximum altitude 23:24:50 85° 108° (ESE) 763 3.4 -12.2°
Drops below altitude 10° 23:30:00 10° 20° (NNE) 2,275 5.6 -13.2°
Enters shadow 23:32:13 - 20° (NNE) 3,142 6.4 -13.6°
